SCP
0 0 0 0 0 0 0 0 0 0 0 0 0 0 0 0 0 0 0 0 0 0 0 0 0 0 0 0 0 0 0 0 0 0 0 0 0 0 0 0 0 0 0 0
0 0 0 0 0 0 0 0 0 0 0 0 0 0 0 0 0 0 0 0 0 0 0 0 0 0 0 0 0 0 0 0 0 0 0 0 0 0 0 0 0 0 0 0
0 0 0 0 0 0 0 0 0 0 0 0 0 0 0 0 0 0 0 0 0 0 0 0 0 0 0 0 0 0 0 0 0 0 0 0 0 0 0 0 0 0 0 0
0 0 0 0 0 0 0 0 0 0 0 0 0 0 0 0 0 0 0 0 0 0 0 0 0 0 0 0 0 0 0 0 0 0 0 0 0 0 0 0 0 0 0 0
0 0 0 0 0 0 0 0 0 0 0 0 0 0 0 0 0 0 0 0 0 0 0 0 0 0 0 0 0 0 0 0 0 0 0 0 0 0 0 0 0 0 0 0
0 0 0 0 0 0 0 0 0 0 0 0 0 0 0 0 0 0 0 0 0 0 0 0 0 0 0 0 0 0 0 0 0 0 0 0 0 0 0 0 0 0 0 0
0 0 0 0 0 0 0 0 0 0 0 0 0 0 0 0 0 0 0 0 0 0 0 0 0 0 0 0 0 0 0 0 0 0 0 0 0 0 0 0 0 0 0 0
0 0 0 0 0 0 0 0 0 0 0 0 0 0 0 0 0 0 0 0 0 0 0 0 0 0 0 0 0 0 0 0 0 0 0 0 0 0 0 0 0 0 0 0
0 0 0 0 0 0 0 0 0 0 0 0 0 0 0 0 0 0 0 0 0 0 0 0 0 0 0 0 0 0 0 0 -0 0 0 0 0 0 0 0 0 0 0 0
0 0 0 0 0 0 0 0 0 0 0 0 0 0 0 0 0 0 0 0 0 0 0 0 0 0 0 0 0 0 -0 -0 0 0 0 0 0 0 0 0 0 0 0 0
0 0 0 0 0 0 0 0 0 0 0 0 0 0 0 0 0 0 0 0 0 0 0 0 -0 0 -0 0 0 -0 -0 0 0 0 0 0 0 0 0 0 0 0 0 0
0 0 0 0 0 0 0 0 0 0 0 0 0 0 0 0 0 0 0 0 0 0 0 -0 -0 -0 -0 0 -0 -0 0 0 0 0 0 0 0 0 0 0 0 0 0 0
0 0 0 0 0 0 0 0 0 0 0 0 0 0 0 0 0 0 0 0 0 0 -0 -0 -0 -0 -0 -0 -0 -0 -0 0 0 0 0 0 0 0 0 0 0 0 0 0
0 0 0 0 0 0 0 0 0 0 0 0 0 0 0 0 0 0 0 0 0 0 0 0 -0 0 0 -0 0 0 0 0 0 0 0 0 0 0 0 0 0 0 0 0
0 0 0 0 0 0 0 0 0 0 0 0 0 0 0 0 0 0 0 -0 -0 -0 0 0 0 -0 0 0 0 0 0 0 0 0 0 0 0 0 0 0 0 0 0 0
0 0 0 0 0 0 0 0 0 0 0 0 0 0 0 0 -0 -0 -0 -0 -0 -0 0 0 -0 -0 -0 0 0 0 0 0 0 0 0 0 0 0 0 0 0 0 0 0
0 0 0 0 0 0 0 0 0 0 0 0 0 0 0 0 -0 -0 -0 -0 -0 0 0 -0 -0 -0 -0 -0 0 0 0 0 0 0 0 0 0 0 0 0 0 0 0 0
0 0 0 0 0 0 0 0 0 0 0 0 0 0 0 -0 -0 -0 0 0 -0 -0 -0 -0 -0 -0 -0 -0 0 0 0 0 0 0 0 0 0 0 0 0 0 0 0 0
0 0 0 0 0 0 0 0 0 0 0 0 0 0 -0 -0 -0 -0 0 0 -0 -0 -0 -0 -0 -0 -0 -0 -0 0 0 0 0 0 0 0 0 0 0 0 0 0 0 0
0 0 0 0 0 0 0 0 0 0 0 0 0 0 -0 -0 0 -0 0 0 -0 -0 -0 -0 -0 -0 -0 -0 -0 0 0 0 0 0 0 0 0 0 0 0 0 0 0 0
0 0 0 0 0 0 0 0 0 0 0 0 0 0 -0 0 0 0 -0 -0 -0 -0 -0 -0 -0 -0 -0 -0 0 0 0 0 0 0 0 0 0 0 0 0 0 0 0 0
0 0 0 0 0 0 0 0 0 0 0 0 0 0 -0 0 0 0 0 0 -0 -0 0 0 -0 -0 -0 -0 0 0 0 0 0 0 0 0 0 0 0 0 0 0 0 0
0 0 0 0 0 0 0 0 0 0 0 0 0 -0 -0 -0 -0 -0 0 0 0 0 0 -0 -0 -0 -0 0 0 0 0 0 0 0 0 0 0 0 0 0 0 0 0 -0
0 0 0 0 0 0 0 0 0 0 0 0 -0 -0 -0 -0 -0 -0 -0 -0 0 -0 0 -0 -0 -0 -0 -0 -0 0 0 0 0 0 0 0 0 0 0 0 0 0 0 0
0 0 0 0 0 0 0 0 -0 0 0 0 -0 -0 0 0 -0 -0 -0 -0 -0 0 -0 -0 -0 -0 -0 -0 -0 -0 0 0 0 0 0 0 0 0 0 0 0 0 0 0
0 0 0 0 0 0 0 0 0 0 -0 -0 -0 -0 -0 -0 -0 -0 -0 0 0 0 -0 0 -0 -0 -0 -0 -0 -0 -0 -0 -0 0 0 0 0 0 0 0 0 -0 0 0
0 0 0 0 0 0 0 0 0 0 -0 -0 -0 -0 -0 -0 -0 -0 -0 0 0 0 0 0 0 0 -0 -0 -0 -0 -0 0 -0 -0 0 0 0 0 0 0 0 -0 -0 0
Wind_Speed_500mb
5 12 2 21 25 28 31 30 25 19 15 4 9 4 12 20 22 22 21 19 15 16 15 18 21 24 28 30 32 33 37 41 44 47 47 48 51 52 53 54 56 57 59 62
36 14 16 19 21 23 24 24 22 21 21 14 14 10 11 6 4 15 11 12 17 19 21 25 29 31 35 38 39 40 45 49 51 53 53 53 55 57 60 60 61 61 64 65
21 13 9 16 28 30 25 23 18 20 14 12 3 8 10 10 10 15 15 17 24 25 28 29 32 36 40 44 46 49 52 55 55 56 58 57 58 58 61 65 66 67 67 65
10 10 16 18 13 13 7 18 9 13 13 4 11 13 14 18 24 19 16 20 24 29 34 35 36 41 45 47 49 52 55 55 55 57 59 60 59 62 66 64 61 60 69 76
9 18 3 26 8 4 4 17 6 11 8 10 19 17 24 12 10 13 20 24 33 36 39 42 44 47 48 50 51 53 55 56 57 58 61 62 62 62 61 64 71 62 68 88
10 7 7 21 15 9 3 10 11 4 8 15 18 16 6 12 20 24 29 35 36 41 44 48 48 49 51 53 54 57 57 59 60 58 60 63 62 64 62 60 82 92 83 75
10 7 3 23 11 3 12 10 7 8 15 24 21 26 26 29 31 35 40 42 46 50 52 54 52 53 56 57 57 59 59 58 58 61 61 58 59 67 90 81 78 76 76 75
5 7 11 20 11 7 13 1 10 21 27 32 33 34 34 36 34 35 40 48 52 56 57 55 55 56 58 59 59 56 59 62 59 58 58 76 81 74 68 67 67 67 66 67
10 4 17 11 16 10 7 13 18 22 26 29 27 30 33 36 38 43 48 52 54 56 58 57 54 54 59 58 57 62 61 59 59 76 75 65 65 63 62 60 62 64 64 65
8 19 11 7 3 7 12 13 18 21 20 22 28 34 39 43 48 53 54 54 55 56 56 58 56 51 49 56 55 58 61 71 79 72 66 61 57 57 60 59 59 59 61 63
11 18 11 8 9 11 10 12 12 18 25 29 34 40 46 50 52 53 53 52 51 54 57 53 51 55 53 52 62 69 82 73 69 66 61 59 57 57 57 55 53 53 53 56
11 19 13 17 8 9 13 13 16 22 30 32 35 40 44 46 47 49 50 53 50 48 53 55 52 52 51 57 70 70 69 69 66 60 57 57 59 62 58 56 49 45 45 52
15 13 8 13 11 9 13 16 21 26 28 31 34 36 40 44 46 48 45 49 47 46 49 49 51 51 52 65 64 60 62 61 56 53 55 57 59 61 64 47 47 46 50 60
15 11 16 17 8 9 15 18 21 21 24 28 32 37 40 43 46 44 42 43 44 45 45 48 50 50 59 61 57 55 52 49 48 49 50 53 55 54 54 59 63 63 56 67
13 19 15 9 7 11 16 18 21 24 28 31 34 37 41 43 41 41 40 41 43 41 45 48 50 57 57 53 51 49 46 43 42 44 45 47 49 50 54 56 55 53 57 57
20 13 9 6 9 10 13 18 21 26 29 32 35 38 39 37 37 38 39 40 44 52 51 53 54 53 51 49 48 45 42 38 39 41 43 46 46 48 51 53 51 44 51 47
9 10 5 6 7 9 14 17 21 24 28 32 35 37 38 37 35 38 40 39 42 52 49 53 52 50 48 44 43 43 41 41 38 39 38 40 45 48 45 45 42 37 41 37
13 10 10 11 10 8 13 18 20 24 27 30 32 35 37 39 40 40 41 41 48 50 55 51 50 48 43 40 41 38 36 39 38 38 37 39 41 42 41 41 38 34 30 33
13 16 16 15 13 12 15 17 21 21 25 29 32 34 36 39 39 40 41 39 51 56 62 57 52 47 44 39 36 35 36 39 40 37 37 38 40 41 39 38 36 31 26 27
20 19 18 17 15 15 16 18 17 20 25 28 29 33 37 42 44 44 47 44 52 52 55 57 55 51 46 43 43 42 43 43 41 41 40 40 41 41 40 36 33 30 26 22
18 16 16 15 15 17 16 16 16 20 24 27 31 33 33 39 51 48 53 58 58 54 56 56 57 57 56 52 52 52 52 50 50 50 48 46 44 43 41 39 34 30 24 17
17 15 15 14 14 15 14 14 16 19 22 25 28 30 33 38 54 48 49 54 55 56 58 52 52 57 65 67 65 63 61 60 58 57 56 52 49 46 44 40 36 30 22 14
17 14 13 13 13 13 12 14 16 18 20 23 26 29 34 35 45 51 55 58 55 56 58 56 53 51 54 56 72 72 73 73 68 64 64 60 56 52 49 45 39 33 25 15
17 14 12 12 11 10 11 13 14 16 18 20 23 25 28 39 30 46 42 46 53 55 57 61 57 60 57 55 55 63 74 77 77 75 70 67 68 64 58 51 44 36 26 18
16 14 11 9 8 8 10 11 13 14 16 20 24 25 25 28 37 46 46 47 47 52 54 59 63 61 57 57 56 61 66 70 74 77 79 78 77 76 71 62 52 42 32 22
15 13 11 8 7 7 7 8 12 16 16 19 23 25 27 26 29 41 47 50 52 53 52 55 61 62 57 56 58 62 62 68 70 75 79 82 83 82 81 77 63 53 40 29
14 14 12 9 6 6 6 8 9 12 19 18 22 26 26 27 28 31 44 51 55 54 55 55 56 57 60 59 57 57 61 66 71 70 72 78 81 83 83 82 79 70 56 38
Wind_Direction_500mb
79 239 139 200 209 221 228 231 231 259 267 190 65 347 294 289 290 284 273 246 239 254 265 282 290 296 298 298 297 297 294 293 292 292 290 288 285 284 282 280 280 279 278 275
184 178 247 249 244 243 224 233 243 252 261 296 289 314 262 260 267 281 269 262 259 263 277 288 293 297 298 297 298 296 295 293 292 291 289 287 285 284 284 282 281 279 276 276
242 136 264 254 235 231 232 235 246 253 261 70 154 257 275 280 289 278 267 289 294 292 287 294 298 298 297 298 298 297 295 295 294 292 289 288 287 285 283 282 282 279 277 276
181 151 225 89 64 29 299 242 210 238 288 301 277 277 281 301 295 286 295 303 301 299 298 297 297 296 296 296 295 296 295 295 294 292 290 289 287 286 286 285 280 278 277 274
226 199 14 153 115 57 266 148 122 359 317 294 7 327 275 28 11 333 326 309 300 299 298 297 296 297 296 296 296 296 296 296 295 294 292 291 289 288 284 284 281 280 280 279
214 248 226 81 98 67 351 153 55 354 2 8 325 280 132 7 315 305 301 291 297 298 298 297 297 299 298 299 299 299 299 298 297 296 293 291 290 289 286 284 285 290 290 289
207 217 0 110 111 268 238 94 61 2 328 311 300 310 318 319 310 309 308 300 299 299 299 300 303 303 301 302 302 301 300 298 297 296 296 294 292 289 294 296 295 293 289 289
160 182 244 114 155 283 67 311 341 322 316 308 319 320 320 314 310 303 301 300 301 301 301 302 303 303 303 302 304 302 300 302 301 299 294 297 301 303 303 300 297 295 294 294
167 177 101 120 67 70 340 316 314 317 333 348 328 307 300 300 305 306 308 305 304 303 302 300 302 304 304 304 302 304 304 303 301 300 306 311 309 307 306 304 299 299 299 299
161 152 151 129 2 313 315 326 343 344 322 314 316 315 312 309 310 309 308 308 306 304 302 303 305 304 306 306 305 299 305 302 307 311 312 311 311 312 311 309 306 303 302 299
180 137 131 139 65 19 340 343 341 338 329 322 315 313 314 312 311 310 309 309 309 307 305 306 308 308 308 307 296 299 306 309 312 312 313 315 314 315 315 312 310 305 304 303
81 80 64 109 79 18 37 3 347 337 325 322 322 319 318 317 315 314 314 313 313 312 309 308 309 309 309 301 307 311 311 311 313 313 315 317 319 319 319 319 320 316 316 317
108 90 86 101 85 46 12 353 343 331 331 333 332 328 326 321 319 319 317 316 315 315 313 312 312 311 308 311 313 313 311 312 315 316 318 319 322 323 323 330 327 327 327 329
116 142 108 81 100 36 358 349 344 344 347 344 339 334 330 325 322 323 324 321 318 317 316 317 314 311 315 317 318 316 315 317 317 318 320 323 325 325 327 328 328 329 332 328
139 113 135 127 82 16 358 1 356 0 354 350 345 342 337 333 331 329 327 325 323 323 322 322 319 321 322 322 322 322 322 324 324 323 327 329 332 332 331 327 323 325 319 330
137 131 115 124 34 22 15 9 10 2 358 352 351 348 342 338 336 336 334 334 332 332 333 330 328 329 329 330 328 327 329 332 334 334 335 338 336 332 329 331 326 330 327 335
124 122 215 105 65 47 26 21 15 5 1 358 356 353 350 348 347 346 345 346 337 338 340 340 337 339 337 335 331 333 335 337 339 338 336 337 337 334 341 340 338 336 344 339
116 95 87 93 98 67 36 29 17 13 7 2 3 2 360 0 356 351 352 351 341 351 354 353 353 347 347 346 343 342 343 344 342 341 338 339 338 343 343 348 348 344 345 349
115 113 106 98 87 65 47 33 24 15 12 12 13 11 10 7 1 2 0 360 358 356 2 3 2 2 2 3 357 357 356 353 353 350 348 345 346 346 349 351 355 356 350 355
119 117 110 95 78 66 51 38 28 24 20 20 20 18 19 13 11 13 11 10 5 2 8 10 11 14 14 17 20 18 15 7 1 359 357 354 354 354 354 358 359 5 4 8
128 121 112 98 77 63 53 43 36 34 27 27 26 23 23 16 24 21 17 13 11 13 16 18 23 24 26 27 29 29 23 20 16 12 7 2 359 1 2 2 1 7 10 22
143 128 113 96 80 68 58 49 46 41 33 31 28 25 24 22 25 31 25 17 15 19 17 15 23 34 34 33 34 32 31 28 25 20 17 13 9 5 3 2 1 4 7 14
141 132 114 98 89 79 67 59 49 43 35 30 26 23 23 20 7 18 21 23 21 25 20 18 22 25 29 21 28 33 33 32 28 26 24 21 17 13 8 4 2 2 1 3
142 137 125 111 97 86 72 57 49 43 37 27 25 21 13 19 18 16 20 18 20 24 22 23 26 30 28 23 22 24 30 30 30 29 27 26 23 18 13 9 4 359 358 359
153 148 139 128 113 90 73 62 46 38 29 24 22 20 19 9 11 12 18 18 17 20 20 21 25 28 24 25 21 23 25 25 28 28 28 26 25 22 18 14 10 4 358 354
162 166 145 139 126 101 79 60 49 38 32 22 20 18 14 14 7 1 16 21 22 21 21 20 22 25 24 24 24 23 21 24 27 28 26 25 25 23 19 17 13 10 6 355
160 158 151 145 129 111 95 78 52 33 32 26 19 15 13 11 9 6 10 22 22 21 23 24 24 24 26 25 24 23 20 21 25 25 26 24 22 22 21 18 17 15 10 3
Wind_Speed_850mb
5 12 2 21 25 28 31 30 25 19 15 4 9 4 12 20 22 22 21 19 15 16 15 18 21 24 28 30 32 33 37 41 44 47 47 48 51 52 53 54 56 57 59 62
36 14 16 19 21 23 24 24 22 21 21 14 14 10 11 6 4 15 11 12 17 19 21 25 29 31 35 38 39 40 45 49 51 53 53 53 55 57 60 60 61 61 64 65
21 13 9 16 28 30 25 23 18 20 14 12 3 8 10 10 10 15 15 17 24 25 28 29 32 36 40 44 46 49 52 55 55 56 58 57 58 58 61 65 66 67 67 65
10 10 16 18 13 13 7 18 9 13 13 4 11 13 14 18 24 19 16 20 24 29 34 35 36 41 45 47 49 52 55 55 55 57 59 60 59 62 66 64 61 60 69 76
9 18 3 26 8 4 4 17 6 11 8 10 19 17 24 12 10 13 20 24 33 36 39 42 44 47 48 50 51 53 55 56 57 58 61 62 62 62 61 64 71 62 68 88
10 7 7 21 15 9 3 10 11 4 8 15 18 16 6 12 20 24 29 35 36 41 44 48 48 49 51 53 54 57 57 59 60 58 60 63 62 64 62 60 82 92 83 75
10 7 3 23 11 3 12 10 7 8 15 24 21 26 26 29 31 35 40 42 46 50 52 54 52 53 56 57 57 59 59 58 58 61 61 58 59 67 90 81 78 76 76 75
5 7 11 20 11 7 13 1 10 21 27 32 33 34 34 36 34 35 40 48 52 56 57 55 55 56 58 59 59 56 59 62 59 58 58 76 81 74 68 67 67 67 66 67
10 4 17 11 16 10 7 13 18 22 26 29 27 30 33 36 38 43 48 52 54 56 58 57 54 54 59 58 57 62 61 59 59 76 75 65 65 63 62 60 62 64 64 65
8 19 11 7 3 7 12 13 18 21 20 22 28 34 39 43 48 53 54 54 55 56 56 58 56 51 49 56 55 58 61 71 79 72 66 61 57 57 60 59 59 59 61 63
11 18 11 8 9 11 10 12 12 18 25 29 34 40 46 50 52 53 53 52 51 54 57 53 51 55 53 52 62 69 82 73 69 66 61 59 57 57 57 55 53 53 53 56
11 19 13 17 8 9 13 13 16 22 30 32 35 40 44 46 47 49 50 53 50 48 53 55 52 52 51 57 70 70 69 69 66 60 57 57 59 62 58 56 49 45 45 52
15 13 8 13 11 9 13 16 21 26 28 31 34 36 40 44 46 48 45 49 47 46 49 49 51 51 52 65 64 60 62 61 56 53 55 57 59 61 64 47 47 46 50 60
15 11 16 17 8 9 15 18 21 21 24 28 32 37 40 43 46 44 42 43 44 45 45 48 50 50 59 61 57 55 52 49 48 49 50 53 55 54 54 59 63 63 56 67
13 19 15 9 7 11 16 18 21 24 28 31 34 37 41 43 41 41 40 41 43 41 45 48 50 57 57 53 51 49 46 43 42 44 45 47 49 50 54 56 55 53 57 57
20 13 9 6 9 10 13 18 21 26 29 32 35 38 39 37 37 38 39 40 44 52 51 53 54 53 51 49 48 45 42 38 39 41 43 46 46 48 51 53 51 44 51 47
9 10 5 6 7 9 14 17 21 24 28 32 35 37 38 37 35 38 40 39 42 52 49 53 52 50 48 44 43 43 41 41 38 39 38 40 45 48 45 45 42 37 41 37
13 10 10 11 10 8 13 18 20 24 27 30 32 35 37 39 40 40 41 41 48 50 55 51 50 48 43 40 41 38 36 39 38 38 37 39 41 42 41 41 38 34 30 33
13 16 16 15 13 12 15 17 21 21 25 29 32 34 36 39 39 40 41 39 51 56 62 57 52 47 44 39 36 35 36 39 40 37 37 38 40 41 39 38 36 31 26 27
20 19 18 17 15 15 16 18 17 20 25 28 29 33 37 42 44 44 47 44 52 52 55 57 55 51 46 43 43 42 43 43 41 41 40 40 41 41 40 36 33 30 26 22
18 16 16 15 15 17 16 16 16 20 24 27 31 33 33 39 51 48 53 58 58 54 56 56 57 57 56 52 52 52 52 50 50 50 48 46 44 43 41 39 34 30 24 17
17 15 15 14 14 15 14 14 16 19 22 25 28 30 33 38 54 48 49 54 55 56 58 52 52 57 65 67 65 63 61 60 58 57 56 52 49 46 44 40 36 30 22 14
17 14 13 13 13 13 12 14 16 18 20 23 26 29 34 35 45 51 55 58 55 56 58 56 53 51 54 56 72 72 73 73 68 64 64 60 56 52 49 45 39 33 25 15
17 14 12 12 11 10 11 13 14 16 18 20 23 25 28 39 30 46 42 46 53 55 57 61 57 60 57 55 55 63 74 77 77 75 70 67 68 64 58 51 44 36 26 18
16 14 11 9 8 8 10 11 13 14 16 20 24 25 25 28 37 46 46 47 47 52 54 59 63 61 57 57 56 61 66 70 74 77 79 78 77 76 71 62 52 42 32 22
15 13 11 8 7 7 7 8 12 16 16 19 23 25 27 26 29 41 47 50 52 53 52 55 61 62 57 56 58 62 62 68 70 75 79 82 83 82 81 77 63 53 40 29
14 14 12 9 6 6 6 8 9 12 19 18 22 26 26 27 28 31 44 51 55 54 55 55 56 57 60 59 57 57 61 66 71 70 72 78 81 83 83 82 79 70 56 38
Wind_Direction_850mb
79 239 139 200 209 221 228 231 231 259 267 190 65 347 294 289 290 284 273 246 239 254 265 282 290 296 298 298 297 297 294 293 292 292 290 288 285 284 282 280 280 279 278 275
184 178 247 249 244 243 224 233 243 252 261 296 289 314 262 260 267 281 269 262 259 263 277 288 293 297 298 297 298 296 295 293 292 291 289 287 285 284 284 282 281 279 276 276
242 136 264 254 235 231 232 235 246 253 261 70 154 257 275 280 289 278 267 289 294 292 287 294 298 298 297 298 298 297 295 295 294 292 289 288 287 285 283 282 282 279 277 276
181 151 225 89 64 29 299 242 210 238 288 301 277 277 281 301 295 286 295 303 301 299 298 297 297 296 296 296 295 296 295 295 294 292 290 289 287 286 286 285 280 278 277 274
226 199 14 153 115 57 266 148 122 359 317 294 7 327 275 28 11 333 326 309 300 299 298 297 296 297 296 296 296 296 296 296 295 294 292 291 289 288 284 284 281 280 280 279
214 248 226 81 98 67 351 153 55 354 2 8 325 280 132 7 315 305 301 291 297 298 298 297 297 299 298 299 299 299 299 298 297 296 293 291 290 289 286 284 285 290 290 289
207 217 0 110 111 268 238 94 61 2 328 311 300 310 318 319 310 309 308 300 299 299 299 300 303 303 301 302 302 301 300 298 297 296 296 294 292 289 294 296 295 293 289 289
160 182 244 114 155 283 67 311 341 322 316 308 319 320 320 314 310 303 301 300 301 301 301 302 303 303 303 302 304 302 300 302 301 299 294 297 301 303 303 300 297 295 294 294
167 177 101 120 67 70 340 316 314 317 333 348 328 307 300 300 305 306 308 305 304 303 302 300 302 304 304 304 302 304 304 303 301 300 306 311 309 307 306 304 299 299 299 299
161 152 151 129 2 313 315 326 343 344 322 314 316 315 312 309 310 309 308 308 306 304 302 303 305 304 306 306 305 299 305 302 307 311 312 311 311 312 311 309 306 303 302 299
180 137 131 139 65 19 340 343 341 338 329 322 315 313 314 312 311 310 309 309 309 307 305 306 308 308 308 307 296 299 306 309 312 312 313 315 314 315 315 312 310 305 304 303
81 80 64 109 79 18 37 3 347 337 325 322 322 319 318 317 315 314 314 313 313 312 309 308 309 309 309 301 307 311 311 311 313 313 315 317 319 319 319 319 320 316 316 317
108 90 86 101 85 46 12 353 343 331 331 333 332 328 326 321 319 319 317 316 315 315 313 312 312 311 308 311 313 313 311 312 315 316 318 319 322 323 323 330 327 327 327 329
116 142 108 81 100 36 358 349 344 344 347 344 339 334 330 325 322 323 324 321 318 317 316 317 314 311 315 317 318 316 315 317 317 318 320 323 325 325 327 328 328 329 332 328
139 113 135 127 82 16 358 1 356 0 354 350 345 342 337 333 331 329 327 325 323 323 322 322 319 321 322 322 322 322 322 324 324 323 327 329 332 332 331 327 323 325 319 330
137 131 115 124 34 22 15 9 10 2 358 352 351 348 342 338 336 336 334 334 332 332 333 330 328 329 329 330 328 327 329 332 334 334 335 338 336 332 329 331 326 330 327 335
124 122 215 105 65 47 26 21 15 5 1 358 356 353 350 348 347 346 345 346 337 338 340 340 337 339 337 335 331 333 335 337 339 338 336 337 337 334 341 340 338 336 344 339
116 95 87 93 98 67 36 29 17 13 7 2 3 2 360 0 356 351 352 351 341 351 354 353 353 347 347 346 343 342 343 344 342 341 338 339 338 343 343 348 348 344 345 349
115 113 106 98 87 65 47 33 24 15 12 12 13 11 10 7 1 2 0 360 358 356 2 3 2 2 2 3 357 357 356 353 353 350 348 345 346 346 349 351 355 356 350 355
119 117 110 95 78 66 51 38 28 24 20 20 20 18 19 13 11 13 11 10 5 2 8 10 11 14 14 17 20 18 15 7 1 359 357 354 354 354 354 358 359 5 4 8
128 121 112 98 77 63 53 43 36 34 27 27 26 23 23 16 24 21 17 13 11 13 16 18 23 24 26 27 29 29 23 20 16 12 7 2 359 1 2 2 1 7 10 22
143 128 113 96 80 68 58 49 46 41 33 31 28 25 24 22 25 31 25 17 15 19 17 15 23 34 34 33 34 32 31 28 25 20 17 13 9 5 3 2 1 4 7 14
141 132 114 98 89 79 67 59 49 43 35 30 26 23 23 20 7 18 21 23 21 25 20 18 22 25 29 21 28 33 33 32 28 26 24 21 17 13 8 4 2 2 1 3
142 137 125 111 97 86 72 57 49 43 37 27 25 21 13 19 18 16 20 18 20 24 22 23 26 30 28 23 22 24 30 30 30 29 27 26 23 18 13 9 4 359 358 359
153 148 139 128 113 90 73 62 46 38 29 24 22 20 19 9 11 12 18 18 17 20 20 21 25 28 24 25 21 23 25 25 28 28 28 26 25 22 18 14 10 4 358 354
162 166 145 139 126 101 79 60 49 38 32 22 20 18 14 14 7 1 16 21 22 21 21 20 22 25 24 24 24 23 21 24 27 28 26 25 25 23 19 17 13 10 6 355
160 158 151 145 129 111 95 78 52 33 32 26 19 15 13 11 9 6 10 22 22 21 23 24 24 24 26 25 24 23 20 21 25 25 26 24 22 22 21 18 17 15 10 3